Location: Brown Observing Site
(43.4354°N, 116.3366°W)
Time: 01:12:47
(UTC-06:00)

Envisat - Visible Passes

Search period start: 23 October 2019 00:00
Search period end: 02 November 2019 00:00
Orbit: 764 x 766 km, 98.1° (Epoch: 23 October)

Date Brightness Start Highest point End Pass type
(mag) Time Alt. Az. Time Alt. Az. Time Alt. Az.
23 Oct 2.9 19:40:21 10° SSE 19:45:25 79° ENE 19:50:31 10° N visible
23 Oct 6.1 21:22:53 10° WSW 21:25:02 13° W 21:27:11 10° WNW visible
24 Oct 5.1 20:43:35 10° SSW 20:47:53 28° W 20:52:13 10° NW visible
25 Oct 6.6 07:14:10 10° ENE 07:15:41 11° E 07:17:11 10° ESE visible
25 Oct 3.6 20:05:56 10° S 20:10:56 60° W 20:15:59 10° NNW visible
26 Oct 3.0 19:29:11 10° SSE 19:34:11 63° ENE 19:39:13 10° N visible
26 Oct 5.9 21:10:33 10° SW 21:13:38 16° W 21:16:45 10° NW visible
27 Oct 6.0 07:37:47 10° NE 07:41:31 20° E 07:45:12 10° SE visible
27 Oct 4.7 20:31:56 10° SSW 20:36:32 34° W 20:41:10 10° NNW visible
28 Oct 3.2 19:54:35 10° S 19:59:39 76° WSW 20:04:45 10° NNW visible
29 Oct 3.2 19:18:04 10° SE 19:22:57 50° ENE 19:27:52 10° N visible
29 Oct 5.6 20:58:32 10° SW 21:02:14 20° W 21:05:59 10° NW visible
30 Oct 6.1 07:27:02 10° NE 07:30:07 16° E 07:33:10 10° SE visible
30 Oct 4.2 20:20:24 10° S 20:25:13 43° W 20:30:04 10° NNW visible
31 Oct 2.9 19:43:18 10° SSE 19:48:23 86° ENE 19:53:30 10° NNW visible
31 Oct 6.2 21:26:29 10° WSW 21:28:04 11° W 21:29:39 10° WNW visible
01 Nov 5.5 07:51:33 10° NE 07:55:52 27° E 08:00:10 10° SSE visible
01 Nov 3.4 19:07:02 10° SE 19:11:44 40° ENE 19:16:28 10° N visible
01 Nov 5.2 20:46:43 10° SSW 20:50:53 25° W 20:55:04 10° NW visible
